Location: Arcones
(41.1182°N, 3.7238°W)
Time: 22:23:35
(UTC+00:00)

Cosmos-2242 - Visible Passes

Search period start: 12 March 2026 00:00
Search period end: 22 March 2026 00:00
Orbit: 567 x 588 km, 82.5° (Epoch: 12 March)

Date Brightness Start Highest point End Pass type
(mag) Time Alt. Az. Time Alt. Az. Time Alt. Az.
12 Mar 6.2 05:58:35 10° SE 06:01:37 20° E 06:04:41 10° NE visible
12 Mar 6.7 19:16:17 10° WNW 19:18:02 12° W 19:19:46 10° WSW visible
13 Mar 5.6 06:02:19 10° SSE 06:05:49 27° E 06:09:21 10° NNE visible
18 Mar 6.7 04:49:51 10° E 04:50:39 10° E 04:51:27 10° ENE visible
19 Mar 6.2 04:52:29 10° ESE 04:54:47 14° E 04:57:06 10° NE visible
20 Mar 5.9 04:55:54 10° SE 04:58:55 20° E 05:01:58 10° NE visible
21 Mar 5.3 04:59:34 10° SE 05:03:05 26° E 05:06:37 10° NNE visible
